Weather in Romanovo

Russia / Altai Krai     52°37′03″N   81°13′16″E
temp.,
°C
wind,
m/s
gust,
m/s
humid.,
%
clouds,
%
prec.,
mm/h
press.,
hPa
HPBL,
m
7 may, fri
fri701:00+20sw4538100 0.0 100475
04:00+18wnw485198 0.0 1006220
07:00+15nw51058100 0.0 1009358
10:00+15nw5855100 0.0 1011516
13:00+16nw5747100 0.0 10141046
16:00+19nw6728100 0.0 10151956
19:00+18nw5730100 0.0 10171808
22:00+14nw3642100 0.0 1019114
8 may, sat
sat801:00+12n3348100 0.0 102053
04:00+10n22505 0.0 102122
07:00+9n23540 0.0 102253
10:00+14nne23360 0.0 1022608
13:00+18n33240 0.0 10211195
16:00+20nnw33230 0.0 10191471
19:00+20n34260 0.0 10191486
22:00+16nne22403 0.0 101915
9 may, sun
sun901:00+14ese11450 0.0 101911
04:00+13wsw11488 0.0 101810
07:00+13nne115071 0.0 101810
10:00+18nne223798 0.0 1018444
13:00+21ne333053 0.0 10171739
16:00+23ne432698 0.0 10152213
19:00+21ne5433100 0.0 10142030
22:00+16ene7124592 0.0 1015432
10 may, mon
mon1001:00+13ene61346100 0.0 1014429
04:00+11ene61351100 0.0 1013373
07:00+10ene71449100 0.0 1012468
10:00+13ene8104093 0.0 1012709
13:00+17ene8931100 0.0 10091145
16:00+18ene7830100 0.0 10081515
19:00+18ne773238 0.0 10071656
22:00+13nne7124512 0.0 1008449
11 may, tue
tue1101:00+11nne5115370 0.0 1008389
04:00+9n51057100 0.0 1008296
07:00+8n476395 0.0 1009260
10:00+12n445085 0.0 1011521
13:00+16nnw4440100 0.0 10111386
16:00+17n4338100 0.0 10112160
19:00+15nnw444595 0.0 10131611
22:00+13n475096 0.0 1014366